TimeEDT,TemperatureF,Dew PointF,Humidity,Sea Level PressureIn,VisibilityMPH,Wind Direction,Wind SpeedMPH,Gust SpeedMPH,PrecipitationIn,Events,Conditions,WindDirDegrees,DateUTC
12:51 AM,45.0,44.1,97,30.24,0.2,NE,4.6,-,N/A,Fog,Fog,40,2013-04-17 04:51:00
1:51 AM,45.0,44.1,97,30.24,0.2,NE,5.8,-,N/A,Fog,Fog,50,2013-04-17 05:51:00
2:12 AM,44.6,44.6,100,30.24,1.0,ENE,5.8,-,N/A,,Mist,60,2013-04-17 06:12:00
2:23 AM,44.6,44.6,100,30.24,2.0,NE,4.6,-,N/A,,Overcast,50,2013-04-17 06:23:00
2:39 AM,44.6,44.6,100,30.24,5.0,Calm,Calm,-,N/A,,Overcast,0,2013-04-17 06:39:00
2:51 AM,45.0,44.1,97,30.26,6.0,Calm,Calm,-,N/A,,Overcast,0,2013-04-17 06:51:00
3:51 AM,44.1,39.9,85,30.27,10.0,NE,8.1,-,N/A,,Mostly Cloudy,50,2013-04-17 07:51:00
4:51 AM,44.1,37.9,79,30.30,10.0,NE,9.2,-,N/A,,Overcast,40,2013-04-17 08:51:00
5:51 AM,42.1,35.1,76,30.31,10.0,NE,8.1,-,N/A,,Clear,40,2013-04-17 09:51:00
6:51 AM,39.9,33.1,77,30.32,10.0,NE,8.1,-,N/A,,Mostly Cloudy,50,2013-04-17 10:51:00
7:51 AM,41.0,34.0,76,30.34,10.0,NE,10.4,-,N/A,,Clear,50,2013-04-17 11:51:00
8:51 AM,44.1,35.1,71,30.34,10.0,NE,8.1,-,N/A,,Clear,50,2013-04-17 12:51:00
9:51 AM,46.9,37.0,68,30.33,10.0,NE,10.4,-,N/A,,Clear,50,2013-04-17 13:51:00
10:51 AM,48.0,34.0,58,30.34,10.0,NNE,12.7,-,N/A,,Clear,30,2013-04-17 14:51:00
11:51 AM,48.9,34.0,56,30.34,10.0,ENE,12.7,-,N/A,,Clear,60,2013-04-17 15:51:00
12:51 PM,50.0,36.0,59,30.30,10.0,NE,13.8,-,N/A,,Clear,50,2013-04-17 16:51:00
1:51 PM,50.0,34.0,54,30.31,10.0,NE,16.1,-,N/A,,Clear,50,2013-04-17 17:51:00
2:51 PM,50.0,34.0,54,30.30,10.0,NNE,12.7,-,N/A,,Clear,30,2013-04-17 18:51:00
3:51 PM,50.0,28.9,44,30.27,10.0,NE,13.8,21.9,N/A,,Clear,40,2013-04-17 19:51:00
4:51 PM,52.0,28.0,40,30.24,10.0,NE,16.1,23.0,N/A,,Clear,50,2013-04-17 20:51:00
5:51 PM,53.1,32.0,45,30.24,10.0,NE,16.1,-,N/A,,Clear,40,2013-04-17 21:51:00
6:51 PM,51.1,33.1,50,30.23,10.0,NE,15.0,23.0,N/A,,Clear,50,2013-04-17 22:51:00
7:51 PM,51.1,35.1,54,30.18,10.0,ENE,12.7,-,N/A,,Overcast,60,2013-04-17 23:51:00
8:51 PM,53.1,35.1,50,30.16,10.0,ENE,13.8,-,N/A,,Overcast,60,2013-04-18 00:51:00
9:51 PM,52.0,37.0,57,30.13,10.0,East,3.5,-,N/A,,Overcast,80,2013-04-18 01:51:00
10:51 PM,52.0,37.9,59,30.10,10.0,NNE,4.6,-,N/A,,Overcast,20,2013-04-18 02:51:00
11:51 PM,48.0,39.9,74,30.10,10.0,NNW,4.6,-,N/A,,Mostly Cloudy,330,2013-04-18 03:51:00